Temp
5 5 5 5 5 5 5 5 5 6 6 6 6 6 5 4 4 4 5 5 5 5 5 4 5 5 5 4 4 4 4 3 3 4 4 5 5 5 5 5 6 6 7 7 8 9 8 9 9 10 10 10 10 11
5 5 5 5 5 5 4 5 5 5 6 5 5 5 5 4 4 3 4 4 5 5 4 4 5 4 4 4 3 3 2 2 2 2 2 3 3 4 4 4 4 4 4 6 6 8 8 9 9 9 10 10 10 10
5 5 4 4 5 4 4 5 5 5 4 4 4 3 4 4 3 3 3 3 4 4 4 4 4 4 3 2 2 2 1 1 2 1 2 2 2 3 3 3 3 2 2 3 5 7 7 7 8 8 9 9 9 10
4 4 4 4 4 4 4 5 5 4 4 3 3 3 3 3 3 3 3 3 4 4 4 3 3 3 3 2 2 1 1 1 1 1 0 1 2 2 2 2 2 2 0 2 4 5 6 6 7 7 8 8 9 9
4 4 4 4 4 4 4 4 4 4 3 3 2 3 3 3 3 3 3 3 3 3 3 3 2 2 1 1 1 1 1 1 1 1 1 1 1 1 2 2 2 3 2 2 3 4 5 5 5 6 7 7 8 8
4 4 4 4 4 4 4 3 3 3 3 2 2 2 2 2 2 2 2 2 2 2 2 3 1 0 0 0 1 1 1 1 1 1 1 1 2 1 1 2 3 3 2 3 4 4 4 5 5 5 5 6 7 7
4 3 3 4 4 3 3 3 2 2 2 2 2 2 2 2 2 2 1 1 1 1 1 2 1 1 1 1 1 1 1 1 1 1 2 2 2 1 1 1 3 3 3 3 4 4 4 4 4 5 6 5 5 6
3 3 3 3 3 3 2 2 2 2 2 2 2 2 2 2 2 1 1 1 1 1 1 1 1 1 0 1 1 1 1 1 1 2 2 2 1 1 1 3 4 3 3 3 3 3 3 3 4 4 5 6 6 6
3 3 3 3 2 2 2 2 2 2 2 2 2 2 1 2 1 1 1 1 0 0 0 0 0 0 1 1 1 1 1 1 1 2 2 1 1 1 2 2 2 2 3 3 3 3 3 3 3 3 4 5 6 5
2 3 2 2 1 1 1 1 1 1 2 2 1 1 1 1 1 1 1 0 0 -0 -1 -1 -1 -0 0 0 0 0 -0 0 1 1 1 1 1 1 1 3 3 3 3 3 3 4 3 3 3 3 3 4 5 5
2 2 1 1 1 1 1 1 1 1 1 1 1 1 1 0 0 -0 -0 -1 -1 -1 -1 -1 -1 -0 -0 -0 -0 -1 0 0 1 1 1 1 1 2 2 2 2 2 3 3 3 4 3 3 3 3 4 4 4 5
1 1 1 0 -0 0 0 1 1 1 1 1 1 1 0 -0 -1 -1 -1 -1 -1 -1 -1 -1 -1 -1 -0 -1 -1 -1 -0 0 1 1 1 1 1 1 1 2 2 2 2 3 3 3 4 4 4 4 4 3 4 4
0 -0 -0 -0 -0 0 0 1 1 1 1 1 1 0 -0 -0 -1 -1 -1 -1 -1 -1 -1 -1 -1 -1 -1 -1 -1 -1 -0 1 1 1 1 0 1 1 1 2 2 2 2 2 2 2 3 4 4 4 3 3 3 3
-0 -0 -0 -0 0 0 0 0 0 0 1 0 0 0 -0 -1 -1 -1 -2 -1 -1 -2 -1 -1 -1 -2 -1 -2 -1 -1 0 0 1 1 0 1 1 0 1 1 2 2 2 2 2 3 3 4 4 4 3 3 3 4
-1 -1 -1 -0 0 0 0 0 0 0 0 -0 -0 0 -1 -2 -2 -2 -2 -2 -2 -1 -2 -2 -1 -1 -2 -1 -1 -1 -0 0 0 -0 -0 0 0 1 1 1 2 2 1 2 2 2 3 4 4 4 4 3 3 3
-1 -1 -1 -0 -0 -0 -0 0 0 -0 -0 -1 -0 -0 -1 -2 -2 -2 -2 -2 -2 -2 -2 -2 -2 -2 -2 -1 -1 -0 -0 -0 -0 -0 0 0 1 1 1 2 1 1 2 2 2 3 3 3 3 4 4 3 3 3
-1 -1 -1 -1 -1 -0 -0 -0 -0 -0 -0 -0 -0 -1 -1 -2 -2 -2 -3 -3 -3 -2 -2 -2 -2 -2 -2 -1 -1 -1 -1 -0 -1 -0 -0 0 0 1 1 1 1 2 2 2 2 3 3 4 3 3 3 3 3 3
-1 -1 -1 -1 -1 -1 -1 -1 -1 -1 -0 -1 -1 -2 -3 -3 -3 -3 -3 -3 -3 -3 -3 -2 -2 -2 -2 -2 -1 -1 -1 -1 -1 -1 -0 -0 0 1 1 1 2 2 3 2 3 3 3 3 2 3 3 3 3 3
-2 -2 -1 -1 -1 -1 -1 -1 -1 -2 -1 -2 -2 -3 -3 -3 -3 -3 -4 -3 -3 -3 -3 -2 -2 -2 -2 -2 -1 -1 -1 -1 0 0 -0 0 0 1 1 1 2 2 3 3 3 2 2 3 4 4 4 3 3 3
-2 -2 -2 -2 -2 -2 -2 -2 -2 -2 -2 -2 -2 -2 -2 -2 -3 -3 -4 -3 -3 -3 -3 -2 -2 -2 -2 -2 -2 -1 -1 -1 0 1 -0 0 0 1 2 2 2 2 2 2 2 2 2 3 4 4 3 3 3 2
-2 -2 -2 -2 -2 -2 -2 -3 -3 -3 -3 -2 -3 -2 -2 -2 -2 -2 -3 -3 -3 -3 -2 -2 -2 -2 -2 -1 -1 -0 -1 -0 0 1 2 2 1 2 2 2 2 2 2 1 1 1 2 2 3 3 3 3 2 2
-2 -2 -2 -2 -2 -3 -3 -3 -3 -4 -3 -3 -3 -3 -2 -2 -2 -2 -2 -2 -2 -2 -2 -2 -2 -2 -1 -1 -0 -0 0 1 0 1 2 2 2 2 1 2 2 2 2 2 1 1 1 2 3 3 3 3 3 2
-3 -3 -3 -3 -3 -3 -4 -3 -4 -5 -5 -4 -3 -3 -2 -2 -2 -2 -2 -2 -2 -2 -2 -2 -2 -2 -1 -1 -0 -0 0 1 1 1 1 2 2 1 1 2 1 2 2 2 1 1 1 2 2 2 2 3 3 2
-3 -3 -3 -4 -4 -4 -4 -4 -4 -4 -4 -4 -4 -2 -2 -2 -2 -2 -2 -1 -1 -1 -1 -2 -2 -1 -1 -1 -1 -1 0 1 0 0 0 1 1 1 1 1 1 2 1 1 1 1 1 1 2 2 2 1 1 1
-3 -3 -3 -4 -4 -4 -4 -3 -4 -4 -4 -4 -3 -2 -2 -2 -2 -2 -1 -1 -1 -1 -1 -1 -1 -2 -1 -1 -0 -0 0 0 0 1 0 0 0 1 0 0 0 0 0 0 0 1 1 0 0 1 1 1 1 1
-4 -3 -4 -4 -4 -4 -4 -4 -4 -4 -4 -4 -3 -2 -2 -2 -2 -2 -2 -1 -1 -1 -1 -1 -1 -2 -1 -0 1 1 1 0 0 0 -0 -0 -0 0 0 0 0 0 0 0 -0 -0 0 0 -0 -0 0 0 0 0
-3 -3 -3 -4 -5 -5 -5 -5 -5 -5 -5 -4 -4 -3 -3 -2 -1 -2 -2 -2 -2 -2 -1 -1 -1 -1 0 1 1 1 0 0 -0 -0 -0 -1 -0 -0 -0 -0 -1 -0 -0 -0 -0 -0 0 0 0 0 0 0 -0 -0
-3 -3 -3 -4 -5 -5 -5 -5 -5 -5 -5 -4 -4 -3 -3 -2 -2 -2 -2 -1 -1 -1 -1 -1 -2 -1 -0 0 0 0 0 0 -0 -0 -0 -0 -0 -0 -1 -1 -1 -1 -1 -1 -1 -0 -0 0 0 0 0 0 0 0
-3 -4 -4 -4 -5 -5 -5 -5 -5 -5 -5 -4 -4 -3 -3 -3 -2 -2 -2 -1 -1 0 0 -1 -2 -1 -1 -0 -1 -0 -0 -0 -1 -1 -1 -1 -1 -1 -1 -1 -1 -0 0 0 0 -0 -0 -0 -1 -1 -1 -1 -1 -1
-3 -3 -4 -4 -5 -5 -5 -5 -5 -5 -5 -5 -5 -3 -2 -1 -1 -1 -1 -1 0 1 -0 -1 -1 -1 -1 -1 -1 -1 -1 -0 -1 -1 -1 -1 -1 -1 -0 -0 -0 -0 0 0 0 0 -0 -1 -1 -1 -1 -1 -1 -1
-4 -4 -4 -4 -4 -4 -5 -5 -5 -4 -4 -3 -3 -2 -1 0 0 -0 1 1 1 1 1 -0 -0 -1 -1 -1 -2 -2 -1 -1 -1 -0 0 0 0 0 0 0 0 -0 -0 -1 -1 -1 -1 -1 -1 -1 -1 -0 -0 -0
-4 -4 -4 -4 -4 -4 -3 -3 -3 -2 -2 -2 -2 -2 -0 -0 0 1 1 -0 -1 -1 -1 -1 -1 -1 -2 -2 -1 -1 -1 -0 0 0 0 0 0 0 0 -0 -0 -0 -1 -1 -1 -1 -1 -1 -1 -1 -1 -1 -1 -1
-4 -3 -3 -3 -3 -3 -2 -2 -1 -1 -1 -1 -1 -1 -1 -0 -1 -1 -1 -0 -0 -1 -1 -1 -1 -1 -1 -1 -1 -0 0 0 0 0 0 0 -0 -0 -1 -1 -1 -1 -1 -1 -1 -1 -1 -1 -1 -1 -1 -1 -1 -2
Height
3170 3167 3164 3160 3156 3151 3147 3142 3137 3132 3127 3123 3119 3116 3113 3110 3107 3105 3104 3102 3099 3096 3094 3091 3089 3087 3084 3084 3082 3083 3083 3080 3080 3081 3081 3081 3080 3080 3080 3080 3080 3082 3082 3082 3082 3078 3077 3082 3089 3092 3090 3090 3092 3093
3165 3163 3159 3156 3151 3147 3142 3138 3133 3129 3124 3120 3117 3113 3110 3108 3106 3103 3101 3098 3095 3092 3091 3086 3083 3082 3080 3080 3080 3080 3080 3079 3079 3079 3079 3078 3078 3077 3076 3077 3077 3080 3079 3078 3077 3074 3073 3075 3079 3081 3083 3084 3086 3088
3160 3157 3154 3150 3146 3142 3137 3133 3129 3125 3121 3118 3114 3111 3108 3106 3103 3101 3099 3096 3092 3088 3087 3083 3080 3079 3078 3078 3078 3079 3078 3076 3076 3076 3076 3076 3076 3076 3075 3074 3073 3073 3071 3072 3072 3072 3070 3071 3073 3074 3076 3079 3082 3083
3154 3151 3148 3145 3141 3137 3133 3128 3124 3120 3117 3115 3112 3109 3106 3104 3101 3098 3095 3092 3089 3086 3083 3082 3077 3075 3074 3074 3075 3076 3076 3076 3074 3073 3073 3072 3073 3073 3071 3071 3069 3070 3067 3067 3068 3068 3068 3068 3069 3071 3073 3075 3077 3079
3148 3145 3142 3139 3135 3132 3128 3124 3120 3116 3114 3112 3109 3107 3104 3101 3097 3094 3091 3089 3086 3086 3081 3078 3076 3075 3073 3072 3072 3072 3073 3073 3073 3071 3070 3069 3069 3069 3067 3067 3064 3066 3064 3064 3063 3065 3065 3065 3065 3067 3068 3071 3074 3076
3142 3139 3136 3133 3130 3127 3123 3119 3116 3113 3111 3109 3107 3104 3101 3098 3094 3091 3089 3088 3084 3081 3078 3077 3076 3075 3074 3073 3072 3070 3070 3069 3067 3066 3066 3065 3065 3065 3061 3057 3060 3061 3058 3059 3061 3061 3061 3061 3061 3061 3061 3064 3066 3068
3136 3133 3130 3128 3125 3121 3118 3115 3112 3110 3108 3105 3103 3100 3097 3095 3092 3090 3088 3085 3082 3079 3076 3074 3074 3074 3073 3072 3070 3069 3066 3064 3063 3061 3058 3059 3059 3059 3055 3050 3054 3057 3057 3057 3057 3056 3056 3056 3053 3053 3054 3057 3059 3062
3130 3127 3124 3122 3119 3116 3113 3110 3108 3106 3104 3102 3100 3097 3094 3091 3089 3087 3084 3082 3080 3078 3076 3075 3074 3073 3072 3070 3067 3066 3063 3061 3058 3056 3054 3053 3054 3053 3049 3047 3049 3051 3052 3053 3053 3051 3051 3050 3049 3047 3047 3051 3055 3058
3123 3121 3119 3116 3113 3110 3108 3106 3104 3102 3100 3098 3096 3093 3090 3088 3086 3085 3082 3081 3080 3081 3077 3077 3075 3073 3071 3068 3064 3061 3057 3054 3053 3051 3051 3050 3048 3048 3048 3047 3047 3047 3047 3047 3048 3048 3048 3047 3044 3041 3041 3044 3048 3054
3116 3114 3112 3110 3107 3106 3104 3102 3100 3098 3096 3094 3092 3090 3087 3086 3084 3083 3080 3080 3079 3079 3078 3077 3075 3072 3070 3065 3061 3059 3056 3053 3051 3051 3048 3046 3045 3044 3043 3043 3044 3043 3043 3043 3042 3043 3043 3043 3042 3041 3039 3041 3043 3048
3110 3108 3106 3104 3103 3101 3100 3098 3096 3094 3093 3091 3088 3087 3085 3083 3082 3080 3080 3079 3079 3079 3078 3077 3074 3071 3069 3064 3060 3059 3056 3054 3051 3050 3047 3044 3042 3042 3041 3040 3039 3038 3037 3035 3036 3036 3035 3036 3037 3037 3037 3038 3041 3044
3105 3103 3102 3100 3099 3098 3096 3094 3092 3091 3089 3088 3086 3083 3082 3081 3080 3081 3080 3081 3080 3080 3078 3075 3073 3070 3067 3063 3060 3059 3056 3054 3050 3049 3046 3043 3040 3040 3037 3036 3034 3033 3031 3029 3027 3027 3029 3031 3032 3033 3034 3035 3038 3040
3100 3098 3097 3096 3095 3093 3092 3090 3089 3087 3086 3084 3083 3081 3080 3080 3080 3080 3081 3080 3080 3079 3077 3074 3072 3068 3065 3064 3060 3058 3055 3052 3050 3047 3046 3042 3041 3036 3033 3030 3029 3027 3027 3025 3022 3022 3024 3026 3028 3029 3030 3032 3034 3037
3096 3095 3094 3092 3091 3090 3089 3087 3085 3085 3083 3082 3080 3079 3079 3078 3079 3080 3080 3080 3079 3076 3074 3072 3070 3067 3063 3061 3059 3057 3054 3051 3048 3046 3041 3042 3040 3038 3033 3030 3025 3024 3023 3019 3017 3018 3019 3021 3023 3025 3026 3029 3032 3034
3093 3091 3090 3089 3088 3087 3086 3084 3083 3082 3081 3080 3078 3076 3075 3076 3077 3078 3078 3077 3076 3074 3073 3070 3067 3064 3062 3060 3058 3057 3053 3049 3045 3043 3042 3042 3040 3038 3036 3034 3030 3026 3021 3018 3016 3014 3015 3016 3019 3022 3024 3026 3029 3032
3088 3088 3087 3085 3084 3083 3082 3081 3080 3079 3077 3077 3075 3074 3074 3075 3075 3075 3075 3074 3073 3072 3070 3068 3065 3062 3059 3058 3056 3053 3052 3049 3047 3042 3042 3042 3041 3040 3038 3033 3030 3027 3025 3023 3019 3017 3017 3018 3019 3021 3021 3022 3024 3026
3085 3084 3083 3082 3081 3080 3079 3078 3077 3076 3074 3073 3072 3071 3071 3071 3072 3073 3071 3071 3069 3069 3068 3067 3065 3063 3060 3056 3055 3054 3051 3048 3045 3042 3045 3044 3042 3041 3039 3037 3034 3031 3028 3025 3022 3020 3018 3016 3017 3019 3019 3021 3021 3022
3081 3080 3079 3078 3078 3077 3076 3075 3073 3072 3070 3069 3069 3068 3067 3068 3068 3069 3068 3068 3067 3066 3066 3064 3064 3061 3059 3056 3054 3050 3051 3049 3048 3047 3045 3044 3043 3041 3040 3039 3036 3033 3030 3026 3022 3020 3018 3015 3013 3018 3020 3021 3023 3025
3077 3076 3075 3075 3075 3074 3073 3071 3070 3068 3067 3065 3065 3065 3064 3064 3063 3063 3062 3062 3062 3062 3063 3062 3061 3058 3057 3053 3051 3049 3050 3050 3048 3046 3043 3041 3042 3040 3040 3039 3037 3034 3030 3025 3022 3021 3021 3020 3020 3019 3021 3022 3024 3028
3073 3073 3072 3072 3071 3071 3070 3068 3066 3065 3064 3063 3062 3060 3059 3058 3058 3057 3056 3057 3058 3058 3058 3057 3057 3058 3056 3054 3051 3051 3050 3049 3047 3046 3044 3043 3042 3040 3040 3040 3038 3034 3030 3026 3023 3022 3022 3022 3023 3023 3023 3023 3024 3026
3069 3069 3069 3069 3068 3068 3067 3065 3064 3062 3060 3059 3058 3057 3056 3054 3053 3052 3052 3054 3054 3053 3053 3054 3055 3055 3053 3053 3052 3051 3049 3046 3044 3043 3043 3043 3042 3041 3042 3041 3039 3036 3032 3029 3028 3026 3026 3025 3025 3026 3026 3025 3024 3023
3066 3066 3066 3065 3065 3063 3063 3062 3062 3060 3058 3057 3056 3055 3054 3054 3053 3052 3052 3051 3050 3050 3050 3050 3050 3050 3050 3050 3050 3049 3047 3045 3042 3042 3041 3042 3043 3044 3043 3041 3039 3038 3037 3034 3032 3031 3030 3029 3027 3027 3027 3027 3027 3026
3063 3063 3063 3062 3062 3060 3061 3059 3059 3058 3057 3056 3055 3054 3053 3052 3051 3051 3048 3046 3045 3043 3043 3045 3047 3048 3048 3048 3048 3046 3045 3043 3042 3041 3041 3041 3043 3043 3042 3041 3039 3037 3036 3035 3034 3033 3032 3031 3030 3028 3027 3027 3027 3027
3060 3060 3059 3058 3057 3058 3058 3057 3057 3057 3056 3055 3054 3052 3051 3050 3049 3047 3044 3039 3039 3040 3042 3044 3045 3047 3047 3046 3045 3044 3043 3042 3039 3040 3040 3041 3042 3041 3041 3041 3039 3038 3036 3037 3036 3035 3034 3033 3032 3031 3029 3029 3028 3028
3059 3058 3057 3054 3054 3055 3055 3055 3055 3055 3054 3054 3053 3051 3050 3049 3048 3046 3043 3040 3040 3042 3043 3045 3045 3045 3044 3044 3043 3042 3040 3040 3040 3039 3040 3040 3041 3040 3040 3040 3040 3040 3039 3038 3038 3037 3036 3036 3035 3034 3032 3031 3030 3029
3053 3052 3052 3051 3051 3053 3053 3054 3053 3052 3052 3052 3051 3050 3049 3048 3046 3045 3042 3040 3040 3043 3044 3045 3045 3044 3043 3042 3040 3039 3039 3039 3038 3038 3038 3039 3040 3040 3039 3040 3039 3040 3040 3039 3038 3038 3037 3036 3035 3034 3034 3032 3031 3031
3048 3048 3047 3048 3048 3050 3050 3050 3050 3050 3049 3048 3047 3047 3047 3046 3043 3045 3045 3043 3045 3045 3045 3045 3043 3041 3039 3038 3037 3037 3038 3039 3039 3039 3039 3039 3039 3038 3038 3037 3039 3039 3039 3038 3037 3036 3035 3034 3033 3032 3032 3031 3030 3029
3044 3044 3045 3045 3045 3046 3046 3046 3046 3045 3044 3044 3045 3045 3044 3043 3043 3042 3043 3043 3043 3043 3044 3043 3041 3039 3038 3036 3035 3037 3038 3039 3039 3039 3040 3040 3040 3040 3040 3040 3039 3038 3036 3035 3035 3035 3033 3032 3031 3030 3029 3028 3027 3026
3042 3042 3041 3040 3041 3041 3041 3041 3041 3041 3041 3041 3040 3039 3039 3039 3038 3038 3038 3038 3037 3038 3039 3040 3039 3039 3039 3037 3037 3038 3039 3041 3041 3041 3042 3042 3041 3041 3040 3039 3038 3035 3034 3033 3033 3032 3031 3030 3028 3027 3026 3024 3023 3022
3039 3037 3036 3037 3037 3036 3037 3036 3036 3036 3035 3034 3032 3031 3030 3031 3033 3033 3032 3031 3031 3032 3034 3035 3037 3038 3038 3038 3036 3037 3039 3040 3041 3041 3041 3040 3040 3039 3039 3038 3036 3034 3032 3031 3030 3030 3028 3026 3025 3023 3021 3019 3018 3016
3037 3035 3035 3035 3034 3034 3033 3032 3029 3028 3027 3025 3024 3023 3023 3024 3027 3025 3024 3025 3026 3027 3030 3034 3037 3039 3040 3040 3040 3040 3039 3041 3040 3039 3038 3036 3036 3036 3035 3034 3033 3032 3031 3031 3029 3028 3027 3025 3022 3020 3018 3016 3014 3013
3037 3036 3034 3033 3033 3031 3028 3025 3022 3019 3018 3018 3017 3018 3020 3022 3023 3022 3021 3023 3027 3030 3034 3037 3039 3041 3041 3041 3041 3040 3039 3038 3037 3036 3035 3034 3033 3033 3032 3032 3030 3029 3028 3027 3026 3024 3022 3020 3019 3017 3014 3012 3011 3009
3036 3034 3033 3032 3030 3029 3026 3024 3022 3022 3021 3022 3023 3024 3025 3027 3027 3029 3030 3031 3034 3037 3038 3040 3040 3041 3041 3041 3040 3039 3038 3037 3037 3036 3034 3033 3032 3031 3030 3029 3028 3026 3025 3024 3022 3020 3019 3017 3015 3014 3012 3010 3008 3006
Wind_Speed
26 27 30 30 33 35 35 35 33 32 30 27 24 22 20 19 17 17 17 17 18 19 16 15 19 18 19 17 18 14 14 8 9 8 8 10 8 8 10 10 16 18 12 21 22 20 13 21 27 22 17 11 9 18
26 28 29 32 33 35 34 32 31 30 28 25 22 20 17 14 14 16 18 20 21 22 20 22 16 13 12 12 11 9 12 11 7 4 4 5 7 6 7 6 9 6 9 13 11 15 11 20 32 28 24 18 19 19
28 29 31 31 34 32 31 30 30 28 26 22 19 17 16 15 16 17 19 19 21 21 16 9 13 12 13 10 12 10 9 11 10 16 13 11 10 9 13 14 11 18 6 9 14 17 11 14 22 30 38 32 29 28
27 28 29 31 31 30 30 30 28 26 23 19 18 17 17 17 18 19 19 19 19 19 9 12 15 13 13 14 12 11 9 8 6 11 17 17 18 15 15 13 16 18 17 11 12 12 12 11 17 12 18 21 22 25
26 28 28 29 28 28 29 28 27 23 19 18 17 17 17 18 19 20 19 18 16 17 17 10 4 3 1 7 9 5 6 7 10 12 14 13 15 21 26 23 25 19 14 12 8 9 11 11 10 23 29 24 23 21
28 28 27 26 27 28 27 26 24 20 17 16 17 18 18 19 19 18 18 15 17 17 17 7 3 5 3 7 9 11 13 16 21 20 19 21 17 16 16 23 21 14 11 8 11 15 16 16 17 19 21 22 26 31
27 26 25 27 27 26 25 23 19 17 17 17 18 18 18 16 16 15 15 16 17 17 15 3 5 6 7 8 8 12 14 20 22 21 25 25 17 21 28 34 25 20 16 16 18 15 17 11 15 19 22 24 21 23
25 25 26 26 25 25 23 20 17 17 17 18 18 18 17 16 15 15 14 15 14 11 7 5 4 6 9 12 16 14 16 15 19 18 19 16 16 14 20 24 19 16 17 12 11 11 11 14 18 22 23 25 27 19
25 26 26 25 24 21 20 18 16 16 17 18 17 16 16 15 13 13 13 10 5 5 4 8 14 8 13 14 13 15 13 12 11 13 14 12 15 12 9 5 8 8 9 12 11 13 10 9 9 10 13 20 29 23
25 25 24 23 21 19 17 15 15 16 16 16 15 14 13 13 12 11 9 3 2 3 5 12 15 17 20 20 20 19 6 7 7 6 8 7 10 13 13 17 15 16 18 20 19 16 16 12 11 10 8 9 19 33
23 21 21 18 17 16 15 15 15 16 15 14 13 12 13 13 12 4 1 3 5 4 7 18 15 22 22 21 18 6 6 6 5 4 7 4 3 6 8 11 14 16 17 18 21 23 21 18 17 12 9 9 14 21
19 17 17 17 16 17 16 15 15 14 12 12 12 13 13 6 1 1 3 3 4 3 14 16 18 20 21 16 8 6 6 4 3 9 6 3 11 14 14 11 11 14 17 21 24 22 22 14 15 11 9 9 12 12
16 15 16 16 16 15 15 14 13 12 11 12 12 8 3 2 1 2 1 1 8 13 16 17 18 22 16 9 8 6 4 3 11 4 4 6 12 11 16 12 9 4 10 14 12 12 17 18 15 17 11 10 12 11
13 13 13 14 14 13 12 11 11 11 11 10 7 6 3 3 3 1 4 9 15 7 14 13 17 20 17 7 5 5 5 8 3 3 2 15 11 13 20 22 24 12 16 17 12 12 14 9 17 15 9 7 10 10
13 13 14 14 13 12 11 10 11 11 10 9 6 4 6 9 6 5 7 8 10 12 15 16 20 15 6 5 4 6 4 4 3 6 10 13 9 11 17 19 20 18 23 17 16 9 6 5 15 14 13 14 10 8
14 14 14 13 11 11 11 11 11 11 11 10 7 5 10 12 11 8 11 11 13 13 15 16 12 5 6 4 4 4 4 5 11 14 14 11 9 11 14 17 19 19 23 21 19 22 11 4 11 13 9 7 11 12
13 14 14 12 11 11 11 11 12 11 7 5 5 7 10 14 13 12 9 9 15 15 11 9 6 4 10 5 5 8 7 8 17 14 14 9 11 11 11 17 17 17 18 21 17 14 13 9 9 10 13 10 12 18
14 14 14 12 11 11 12 12 13 10 8 11 9 12 14 12 12 12 12 12 16 15 12 8 10 16 10 5 5 15 12 14 14 15 12 1 5 7 14 13 14 15 15 20 18 11 13 12 10 15 12 12 12 23
13 14 12 12 11 11 12 14 11 10 9 11 5 8 13 16 16 16 14 13 13 17 14 12 8 9 15 19 11 18 17 17 16 13 11 1 8 6 4 8 16 18 17 17 15 10 7 7 2 10 9 6 5 7
15 13 12 11 11 11 10 9 13 11 5 10 11 12 15 14 9 14 11 8 9 11 15 18 17 13 17 19 16 16 15 17 16 10 6 2 6 3 2 9 15 17 18 17 16 8 6 4 9 8 4 3 8 9
13 12 11 11 11 11 10 10 10 10 12 11 10 13 6 5 8 7 8 10 14 17 18 16 11 14 15 13 14 17 19 21 16 10 5 2 7 6 6 9 11 15 21 18 13 12 7 4 4 4 5 11 5 4
10 11 11 11 11 13 10 9 8 11 12 6 5 4 3 3 4 4 5 12 18 17 18 18 17 15 11 11 13 16 15 14 15 8 4 4 7 5 6 6 6 10 15 16 15 14 11 10 5 5 5 6 6 6
10 11 11 11 10 7 5 4 6 5 6 5 6 4 5 5 6 9 9 12 16 15 16 15 9 4 8 7 11 13 12 10 12 7 2 2 2 2 5 7 10 10 12 8 8 9 8 5 2 5 6 7 7 5
11 11 10 7 6 4 6 4 6 7 6 8 9 10 7 7 7 13 11 12 6 3 5 5 3 1 5 7 8 10 11 11 8 3 2 1 1 2 5 8 10 11 7 7 8 11 10 8 8 6 4 4 4 4
9 8 7 9 7 6 3 2 5 7 7 6 10 6 6 9 15 7 6 4 8 8 10 7 5 2 5 5 6 7 8 7 3 3 2 2 2 3 2 4 5 7 5 4 7 8 10 9 6 6 5 5 4 4
7 7 7 6 6 5 5 6 7 8 9 12 9 7 10 12 4 3 10 2 11 10 7 2 3 7 8 10 7 7 6 3 1 2 1 1 1 2 6 5 1 2 4 6 7 6 8 8 8 7 7 7 8 8
9 9 9 11 11 10 11 11 11 13 16 14 5 6 7 5 4 2 5 9 7 4 5 7 10 12 13 10 9 6 4 3 4 1 1 3 4 5 6 5 8 8 8 10 11 11 10 11 13 14 14 15 16 17
10 11 10 12 14 13 13 13 14 13 8 8 12 10 6 4 5 7 5 5 8 9 8 8 10 10 12 10 2 4 5 6 7 3 2 0 1 3 4 5 7 10 11 10 10 10 11 10 10 9 10 11 12 13
11 10 13 13 13 14 16 16 16 14 13 13 17 18 21 21 20 19 18 19 20 16 9 3 5 1 3 1 3 6 6 7 5 5 3 4 3 4 8 10 14 15 12 12 13 14 12 11 10 11 11 11 12 12
10 12 14 11 13 14 11 12 10 7 13 17 23 28 28 25 22 22 23 24 20 14 8 11 11 3 4 9 5 12 11 10 6 1 4 8 10 11 12 13 14 13 13 13 13 12 12 13 13 13 14 15 17 18
4 4 3 3 4 4 6 11 16 18 21 23 25 26 22 18 14 20 20 16 9 7 12 16 11 9 8 8 5 7 6 3 7 7 9 10 10 10 11 11 12 12 11 10 11 12 12 12 14 15 16 17 17 17
8 9 11 11 6 12 14 16 15 6 9 5 2 2 6 8 5 4 8 16 20 22 20 17 13 9 4 0 3 6 7 7 6 5 6 8 9 10 10 11 12 13 12 12 12 14 15 15 15 15 15 15 15 15
11 8 11 11 7 10 13 15 14 14 17 18 16 17 17 17 20 22 24 23 21 17 14 13 10 9 9 9 7 5 5 4 5 6 7 8 9 10 11 11 12 13 13 13 13 13 13 13 13 13 13 13 12 12
Wind_Direction
305 312 317 317 323 326 326 329 329 330 331 330 329 331 330 332 332 329 329 329 325 323 322 312 303 297 290 290 288 294 306 292 270 266 261 247 253 245 262 266 262 263 260 239 245 241 246 234 232 220 202 213 273 235
304 309 314 317 321 322 323 324 326 328 329 328 328 332 333 333 328 327 326 325 324 322 319 308 301 299 292 283 287 308 308 283 269 280 260 265 264 275 279 276 277 272 286 254 237 218 234 216 214 215 222 244 263 259
304 307 312 315 320 321 322 324 326 327 327 325 330 333 332 329 325 322 321 322 321 321 325 323 318 308 295 281 287 307 322 297 284 240 266 279 274 287 284 285 294 258 318 285 250 235 198 199 218 230 237 243 236 244
305 308 311 315 317 319 321 323 326 325 322 319 325 327 324 324 323 322 323 326 327 328 341 333 305 299 281 275 283 294 296 282 286 244 244 260 268 283 280 296 292 305 310 292 285 265 256 260 235 232 220 228 236 241
303 307 310 312 314 317 320 322 324 323 320 316 318 322 322 322 323 323 324 327 328 332 329 335 316 335 284 271 286 272 278 272 265 261 263 273 285 272 266 273 271 284 280 263 304 291 277 255 244 238 241 226 234 243
302 305 308 310 313 315 317 320 321 319 320 318 316 318 320 321 321 321 323 326 329 331 334 344 192 171 206 257 279 273 283 277 262 256 262 267 280 290 266 263 269 263 260 259 291 290 272 269 261 259 246 229 232 237
300 303 305 308 310 312 314 316 315 314 315 314 315 316 319 322 321 320 318 320 326 331 338 1 187 241 257 295 283 274 283 282 283 281 273 282 276 276 271 264 262 257 260 269 291 289 280 291 277 267 250 231 225 218
295 299 303 305 308 310 311 311 308 310 310 312 313 314 317 318 316 316 316 320 327 337 356 23 324 278 285 296 288 290 287 283 278 273 280 283 274 270 265 279 294 289 280 266 276 278 291 282 280 281 265 227 214 199
293 297 300 302 305 306 309 309 309 310 312 312 313 314 314 315 312 311 312 319 338 16 44 30 23 355 343 339 334 333 312 303 275 278 289 270 262 249 288 301 293 288 271 260 259 277 295 306 324 310 261 231 216 217
291 294 296 299 301 304 303 305 309 310 310 311 313 314 317 322 316 312 309 327 78 82 44 12 357 359 347 339 332 332 315 312 302 297 304 286 280 284 280 268 275 270 268 270 266 269 275 281 279 290 253 244 231 214
291 292 294 294 297 301 300 302 307 308 310 312 313 313 311 312 312 307 17 35 23 35 335 344 344 342 343 333 328 310 315 301 296 308 315 290 274 335 326 306 294 288 288 283 276 274 278 270 253 269 250 227 230 212
290 293 293 293 295 300 300 302 304 305 309 310 311 309 306 305 318 57 40 30 354 334 346 344 343 335 340 332 328 310 292 272 274 316 297 282 349 343 330 307 305 297 290 290 293 274 265 267 249 247 239 225 233 203
290 291 291 293 297 298 298 297 299 304 309 311 312 299 282 238 131 130 29 246 323 326 324 322 329 327 333 326 292 285 274 275 298 277 290 315 353 345 5 349 324 346 338 316 298 283 255 268 247 233 243 243 236 220
289 296 297 300 298 297 295 295 300 305 308 310 302 264 255 161 131 95 304 308 309 324 344 330 330 321 320 311 278 281 286 299 266 258 283 19 8 7 358 354 357 359 343 322 280 268 271 273 217 211 192 229 233 235
290 299 299 298 295 294 292 296 301 301 301 298 283 250 192 184 190 264 288 295 317 324 322 315 321 318 302 275 263 286 282 272 300 354 23 30 21 9 2 359 1 11 26 11 15 335 278 245 189 193 194 191 201 225
288 293 296 296 293 290 292 298 297 297 295 280 248 234 211 203 217 258 272 286 297 308 306 328 330 297 278 275 258 258 292 310 328 52 34 34 30 25 11 18 19 18 22 18 26 25 14 271 198 198 197 222 244 224
283 288 296 294 288 289 291 293 296 296 272 260 271 256 237 234 244 256 281 300 296 298 313 321 315 303 316 306 322 344 320 315 19 30 24 25 25 27 10 16 359 5 9 5 3 8 13 6 240 231 192 212 218 197
277 283 290 286 284 286 290 294 294 285 279 287 283 248 239 243 260 259 269 268 288 294 305 300 307 288 287 277 347 346 30 35 19 4 357 329 43 357 28 4 1 2 7 8 4 358 11 14 101 194 209 177 182 194
277 289 282 277 279 284 291 293 286 282 288 292 281 254 247 248 255 269 278 274 269 258 269 279 282 297 327 321 358 14 14 351 359 15 340 256 30 11 39 359 1 10 11 3 17 20 57 38 61 196 214 216 230 220
286 283 272 269 276 285 290 277 294 293 281 288 300 287 279 284 282 279 264 249 238 251 248 256 278 306 315 301 332 343 340 331 334 346 340 193 288 188 23 333 345 4 15 17 9 22 48 53 83 99 92 216 230 247
276 266 265 271 278 279 281 284 291 295 303 306 303 299 312 303 305 285 235 226 238 248 261 258 276 283 289 285 301 320 329 325 328 330 298 278 269 303 330 342 347 30 39 35 38 78 65 57 81 85 60 52 102 238
259 260 267 273 279 287 286 274 286 299 295 307 316 319 30 15 3 341 285 252 259 267 266 268 271 287 283 279 285 313 327 325 327 327 297 248 236 252 321 16 357 2 12 18 38 63 66 52 70 81 69 58 74 159
260 265 270 275 278 272 263 273 319 322 313 330 342 332 303 300 299 309 303 289 279 272 255 257 250 245 269 281 303 317 326 324 333 332 346 267 333 340 300 317 332 345 357 14 32 22 44 56 52 31 24 32 50 66
266 264 266 259 244 238 252 272 300 306 305 307 316 314 331 334 324 324 307 324 84 130 149 142 155 190 299 298 299 316 313 328 327 201 33 297 190 252 304 336 3 13 27 42 20 20 27 34 45 52 55 44 19 25
258 254 241 252 245 233 243 269 281 290 297 305 305 293 304 323 331 320 323 345 143 138 142 147 158 233 288 287 292 326 319 320 3 226 234 299 358 336 4 31 46 65 63 12 15 14 23 24 24 15 11 9 355 2
244 235 226 228 214 217 220 234 260 262 272 284 274 274 290 312 283 311 14 118 101 109 98 84 268 285 297 315 295 298 298 279 40 58 326 1 236 224 183 183 178 301 295 301 316 323 318 322 324 329 338 338 330 334
250 243 246 234 217 232 241 249 265 275 277 282 263 254 285 262 212 98 61 85 93 84 24 354 327 302 317 314 289 294 234 194 141 180 170 194 200 207 260 308 339 320 314 307 301 306 298 289 288 296 299 298 299 304
260 272 268 234 227 237 256 261 266 269 270 255 239 240 236 246 209 237 260 285 293 297 319 344 321 317 329 338 279 162 159 154 126 126 134 295 22 29 6 356 339 332 321 313 314 317 323 320 316 313 309 305 303 303
284 283 261 239 238 243 250 254 256 255 254 244 252 242 240 247 253 261 270 283 288 290 301 268 208 283 335 59 194 173 161 158 176 211 247 320 345 339 342 342 344 337 333 322 318 318 324 327 325 324 321 317 311 305
295 278 260 248 255 258 268 264 274 257 251 255 252 247 248 253 258 268 272 271 275 283 255 212 181 138 67 77 127 192 174 173 180 204 298 293 293 300 310 318 328 332 327 328 329 333 332 330 329 324 314 307 305 306
303 347 339 313 337 338 295 265 264 266 262 259 260 264 267 268 256 258 263 270 263 217 185 154 144 131 112 86 51 27 35 5 324 310 300 302 306 313 317 320 323 327 326 330 327 320 315 308 306 307 309 309 310 313
4 348 330 318 296 290 301 323 342 36 49 47 69 175 147 131 126 130 133 130 129 127 130 135 135 137 126 87 298 318 332 332 328 325 321 313 310 310 312 314 314 315 317 313 306 303 306 312 314 313 311 311 313 314
2 2 357 343 342 349 2 26 61 77 93 105 108 117 118 114 114 122 122 129 133 138 133 134 127 104 78 45 17 353 347 353 349 333 324 320 317 314 312 312 311 309 309 308 308 310 311 309 308 309 310 310 312 316